{"data":{"norad_id":58593,"intl_designator":"2023-200E","name":"STARLINK-31094","alt_names":[],"object_type":"PAYLOAD","status":"ACTIVE","operator":null,"country":"US","launch_date":"2023-12-19","launch_site_code":"AFETR","launch_vehicle":null,"mission":null,"orbit_class":"UNKNOWN","rcs_meters":null,"size_class":null,"mass_kg":null,"dimensions":null,"purposes":["comms"],"wikipedia_slug":null,"has_3d_model":false,"image_url":null,"decayed_at":null,"tle_current":{"epoch":"2026-09-20T22:39:19.131552Z","epoch_age_seconds":111446,"freshness":"FRESH","line1":"1 58593U 23200E   26263.94397143 -.00000001  00000+0  94729-5 0  9993","line2":"2 58593  43.0023 146.0628 0001397 273.0221  87.0471 15.27576615153470","mean_motion":15.27576615,"eccentricity":0.0001397,"inclination_deg":43.0023,"raan_deg":146.0628,"arg_perigee_deg":273.0221,"mean_anomaly_deg":87.0471,"bstar":9.4729e-6,"rev_number":15347,"period_min":94.266957601992,"perigee_km":482.10072285251,"apogee_km":484.01774107972,"semimajor_km":6861.1962319661,"source":"CELESTRAK","updated_at":"2026-09-21T09:00:33.917463Z"}}}